Time,TemperatureF,DewpointF,PressureIn,WindDirection,WindDirectionDegrees,WindSpeedMPH,WindSpeedGustMPH,Humidity,HourlyPrecipIn,Conditions,Clouds,dailyrainin,SoftwareType,DateUTC
2013-06-04 00:00:00,63.6,52.0,29.91,NE,54,0.0,0.0,66,0.00,,,0.00,Wunderground v.1.15,2013-06-04 04:00:00,
2013-06-04 00:04:00,63.5,51.5,29.91,NE,54,0.0,0.0,65,0.00,,,0.00,Wunderground v.1.15,2013-06-04 04:04:00,
2013-06-04 00:09:00,63.4,51.4,29.91,NE,54,0.0,0.0,65,0.00,,,0.00,Wunderground v.1.15,2013-06-04 04:09:00,
2013-06-04 00:14:00,63.2,51.2,29.91,ESE,107,0.0,0.0,65,0.00,,,0.00,Wunderground v.1.15,2013-06-04 04:14:00,
2013-06-04 00:24:00,62.8,50.9,29.91,ENE,69,0.0,0.0,65,0.00,,,0.00,Wunderground v.1.15,2013-06-04 04:24:00,
2013-06-04 00:30:00,62.7,51.6,29.91,ENE,69,0.0,0.0,67,0.00,,,0.00,Wunderground v.1.15,2013-06-04 04:30:00,
2013-06-04 00:39:00,62.6,50.7,29.92,ENE,69,0.0,0.0,65,0.00,,,0.00,Wunderground v.1.15,2013-06-04 04:39:00,
2013-06-04 00:45:00,62.6,49.8,29.92,ENE,69,0.0,0.0,63,0.00,,,0.00,Wunderground v.1.15,2013-06-04 04:45:00,
2013-06-04 00:54:00,62.5,49.7,29.92,ENE,69,0.0,0.0,63,0.00,,,0.00,Wunderground v.1.15,2013-06-04 04:54:00,
2013-06-04 01:00:00,62.4,48.8,29.92,ENE,69,0.0,0.0,61,0.00,,,0.00,Wunderground v.1.15,2013-06-04 05:00:00,
2013-06-04 01:09:00,62.4,48.8,29.93,ENE,69,0.0,0.0,61,0.00,,,0.00,Wunderground v.1.15,2013-06-04 05:09:00,
2013-06-04 01:15:00,62.3,49.1,29.93,ESE,106,0.0,0.0,62,0.00,,,0.00,Wunderground v.1.15,2013-06-04 05:15:00,
2013-06-04 01:24:00,62.0,49.3,29.93,ESE,106,0.0,0.0,63,0.00,,,0.00,Wunderground v.1.15,2013-06-04 05:24:00,
2013-06-04 01:30:00,61.7,48.5,29.94,ESE,106,0.0,0.0,62,0.00,,,0.00,Wunderground v.1.15,2013-06-04 05:30:00,
2013-06-04 01:39:00,61.4,47.8,29.94,ENE,60,0.0,0.0,61,0.00,,,0.00,Wunderground v.1.15,2013-06-04 05:39:00,
2013-06-04 01:45:00,61.4,47.8,29.94,West,269,0.0,0.0,61,0.00,,,0.00,Wunderground v.1.15,2013-06-04 05:45:00,
2013-06-04 01:54:00,61.2,48.1,29.95,West,269,0.0,0.0,62,0.00,,,0.00,Wunderground v.1.15,2013-06-04 05:54:00,
2013-06-04 02:00:00,61.1,48.4,29.95,West,269,0.0,0.0,63,0.00,,,0.00,Wunderground v.1.15,2013-06-04 06:00:00,
2013-06-04 02:09:00,60.7,48.4,29.95,West,269,0.0,0.0,64,0.00,,,0.00,Wunderground v.1.15,2013-06-04 06:09:00,
2013-06-04 02:15:00,60.5,48.3,29.96,West,269,0.0,0.0,64,0.00,,,0.00,Wunderground v.1.15,2013-06-04 06:15:00,
2013-06-04 02:24:00,60.3,48.1,29.96,ENE,59,1.0,3.0,64,0.00,,,0.00,Wunderground v.1.15,2013-06-04 06:24:00,
2013-06-04 02:30:00,60.2,47.6,29.96,ENE,57,1.0,1.0,63,0.00,,,0.00,Wunderground v.1.15,2013-06-04 06:30:00,
2013-06-04 02:39:00,60.0,47.8,29.96,SSE,150,1.0,1.0,64,0.00,,,0.00,Wunderground v.1.15,2013-06-04 06:39:00,
2013-06-04 02:45:00,59.8,47.6,29.96,ENE,65,1.0,1.0,64,0.00,,,0.00,Wunderground v.1.15,2013-06-04 06:45:00,
2013-06-04 02:54:00,59.4,48.4,29.96,NE,52,0.0,1.0,67,0.00,,,0.00,Wunderground v.1.15,2013-06-04 06:54:00,
2013-06-04 03:00:00,59.1,47.7,29.96,ESE,114,0.0,0.0,66,0.00,,,0.00,Wunderground v.1.15,2013-06-04 07:00:00,
2013-06-04 03:09:00,58.6,48.1,29.97,SSE,150,0.0,0.0,68,0.00,,,0.00,Wunderground v.1.15,2013-06-04 07:09:00,
2013-06-04 03:15:00,58.3,47.8,29.96,SSE,150,0.0,0.0,68,0.00,,,0.00,Wunderground v.1.15,2013-06-04 07:15:00,
2013-06-04 03:24:00,57.7,47.6,29.96,SSE,168,0.0,1.0,69,0.00,,,0.00,Wunderground v.1.15,2013-06-04 07:24:00,
2013-06-04 03:30:00,57.3,47.6,29.97,WNW,294,0.0,0.0,70,0.00,,,0.00,Wunderground v.1.15,2013-06-04 07:30:00,
2013-06-04 03:39:00,57.1,47.0,29.97,NE,55,1.0,1.0,69,0.00,,,0.00,Wunderground v.1.15,2013-06-04 07:39:00,
2013-06-04 03:45:00,57.1,47.0,29.97,NNE,14,0.0,1.0,69,0.00,,,0.00,Wunderground v.1.15,2013-06-04 07:45:00,
2013-06-04 03:54:00,56.9,47.2,29.97,East,88,0.0,1.0,70,0.00,,,0.00,Wunderground v.1.15,2013-06-04 07:54:00,
2013-06-04 04:00:00,56.9,47.2,29.97,WSW,252,0.0,0.0,70,0.00,,,0.00,Wunderground v.1.15,2013-06-04 08:00:00,
2013-06-04 04:09:00,56.6,46.9,29.98,WSW,252,0.0,0.0,70,0.00,,,0.00,Wunderground v.1.15,2013-06-04 08:09:00,
2013-06-04 04:19:00,56.5,46.8,29.98,ESE,111,0.0,0.0,70,0.00,,,0.00,Wunderground v.1.15,2013-06-04 08:19:00,
2013-06-04 04:24:00,56.5,46.8,29.98,ENE,74,0.0,0.0,70,0.00,,,0.00,Wunderground v.1.15,2013-06-04 08:24:00,
2013-06-04 04:30:00,56.4,46.7,29.98,ENE,74,0.0,0.0,70,0.00,,,0.00,Wunderground v.1.15,2013-06-04 08:30:00,
2013-06-04 04:39:00,56.0,46.4,29.98,South,182,0.0,0.0,70,0.00,,,0.00,Wunderground v.1.15,2013-06-04 08:39:00,
2013-06-04 04:45:00,55.8,46.5,29.98,SSE,163,0.0,0.0,71,0.00,,,0.00,Wunderground v.1.15,2013-06-04 08:45:00,
2013-06-04 04:54:00,55.5,46.2,29.98,ESE,111,0.0,1.0,71,0.00,,,0.00,Wunderground v.1.15,2013-06-04 08:54:00,
2013-06-04 05:00:00,55.3,46.4,29.99,South,172,0.0,1.0,72,0.00,,,0.00,Wunderground v.1.15,2013-06-04 09:00:00,
2013-06-04 05:09:00,55.0,47.2,29.99,South,172,0.0,0.0,75,0.00,,,0.00,Wunderground v.1.15,2013-06-04 09:09:00,
2013-06-04 05:15:00,54.7,46.6,29.99,South,172,0.0,0.0,74,0.00,,,0.00,Wunderground v.1.15,2013-06-04 09:15:00,
2013-06-04 05:24:00,54.0,47.0,29.99,South,172,0.0,0.0,77,0.00,,,0.00,Wunderground v.1.15,2013-06-04 09:24:00,
2013-06-04 05:30:00,53.8,46.8,30.00,South,172,0.0,0.0,77,0.00,,,0.00,Wunderground v.1.15,2013-06-04 09:30:00,
2013-06-04 05:39:00,53.3,46.3,30.00,South,172,0.0,0.0,77,0.00,,,0.00,Wunderground v.1.15,2013-06-04 09:39:00,
2013-06-04 05:45:00,53.1,46.4,30.00,South,172,0.0,0.0,78,0.00,,,0.00,Wunderground v.1.15,2013-06-04 09:45:00,
2013-06-04 05:54:00,52.8,46.8,30.00,South,172,0.0,0.0,80,0.00,,,0.00,Wunderground v.1.15,2013-06-04 09:54:00,
2013-06-04 06:00:00,52.6,46.6,30.01,South,172,0.0,0.0,80,0.00,,,0.00,Wunderground v.1.15,2013-06-04 10:00:00,
2013-06-04 06:09:00,52.5,47.2,30.01,South,172,0.0,0.0,82,0.00,,,0.00,Wunderground v.1.15,2013-06-04 10:09:00,
2013-06-04 06:15:00,52.4,47.1,30.01,South,171,0.0,0.0,82,0.00,,,0.00,Wunderground v.1.15,2013-06-04 10:15:00,
2013-06-04 06:24:00,52.5,47.5,30.01,South,171,0.0,0.0,83,0.00,,,0.00,Wunderground v.1.15,2013-06-04 10:24:00,
2013-06-04 06:30:00,52.7,47.7,30.01,South,171,0.0,0.0,83,0.00,,,0.00,Wunderground v.1.15,2013-06-04 10:30:00,
2013-06-04 06:39:00,53.0,48.3,30.02,South,171,0.0,0.0,84,0.00,,,0.00,Wunderground v.1.15,2013-06-04 10:39:00,
2013-06-04 06:45:00,53.2,48.2,30.02,South,171,0.0,0.0,83,0.00,,,0.00,Wunderground v.1.15,2013-06-04 10:45:00,
2013-06-04 06:54:00,53.6,47.6,30.02,South,171,0.0,0.0,80,0.00,,,0.00,Wunderground v.1.15,2013-06-04 10:54:00,
2013-06-04 07:00:00,54.0,47.3,30.02,ENE,67,0.0,0.0,78,0.00,,,0.00,Wunderground v.1.15,2013-06-04 11:00:00,
2013-06-04 07:09:00,54.8,47.4,30.02,ESE,113,0.0,0.0,76,0.00,,,0.00,Wunderground v.1.15,2013-06-04 11:09:00,
2013-06-04 07:15:00,55.2,47.1,30.02,SW,232,0.0,0.0,74,0.00,,,0.00,Wunderground v.1.15,2013-06-04 11:15:00,
2013-06-04 07:24:00,56.0,46.4,30.02,NNE,19,0.0,0.0,70,0.00,,,0.00,Wunderground v.1.15,2013-06-04 11:24:00,
2013-06-04 07:30:00,56.4,46.7,30.02,East,91,0.0,0.0,70,0.00,,,0.00,Wunderground v.1.15,2013-06-04 11:30:00,
2013-06-04 07:39:00,57.4,46.5,30.02,ESE,104,0.0,0.0,67,0.00,,,0.00,Wunderground v.1.15,2013-06-04 11:39:00,
2013-06-04 07:45:00,58.0,46.7,30.02,SW,225,0.0,0.0,66,0.72,,,0.05,Wunderground v.1.15,2013-06-04 11:45:00,
2013-06-04 07:54:00,58.5,45.9,30.03,ENE,67,1.0,1.0,63,0.06,,,0.05,Wunderground v.1.15,2013-06-04 11:54:00,
2013-06-04 08:00:00,58.9,46.3,30.03,NE,43,1.0,3.0,63,0.17,,,0.07,Wunderground v.1.15,2013-06-04 12:00:00,
2013-06-04 08:09:00,59.4,47.2,30.03,NNE,21,2.0,3.0,64,0.05,,,0.07,Wunderground v.1.15,2013-06-04 12:09:00,
2013-06-04 08:15:00,59.6,46.1,30.03,ENE,58,2.0,3.0,61,0.00,,,0.07,Wunderground v.1.15,2013-06-04 12:15:00,
2013-06-04 08:24:00,60.2,46.7,30.04,NE,35,1.0,2.0,61,0.00,,,0.07,Wunderground v.1.15,2013-06-04 12:24:00,
2013-06-04 08:30:00,60.7,45.8,30.04,North,355,2.0,2.0,58,0.00,,,0.07,Wunderground v.1.15,2013-06-04 12:30:00,
2013-06-04 08:39:00,61.3,46.4,30.04,ENE,66,1.0,3.0,58,0.00,,,0.07,Wunderground v.1.15,2013-06-04 12:39:00,
2013-06-04 08:45:00,61.7,46.8,30.04,NE,54,1.0,3.0,58,0.00,,,0.07,Wunderground v.1.15,2013-06-04 12:45:00,
2013-06-04 08:54:00,62.6,45.7,30.05,WSW,240,1.0,5.0,54,0.00,,,0.07,Wunderground v.1.15,2013-06-04 12:54:00,
2013-06-04 09:04:00,62.8,45.9,30.05,WNW,283,2.0,2.0,54,0.00,,,0.07,Wunderground v.1.15,2013-06-04 13:04:00,
2013-06-04 09:15:00,63.4,45.5,30.05,WSW,241,1.0,1.0,52,0.00,,,0.07,Wunderground v.1.15,2013-06-04 13:15:00,
2013-06-04 09:24:00,64.1,44.5,30.05,WNW,290,1.0,2.0,49,0.00,,,0.07,Wunderground v.1.15,2013-06-04 13:24:00,
2013-06-04 09:30:00,63.8,45.8,30.06,West,275,2.0,2.0,52,0.00,,,0.07,Wunderground v.1.15,2013-06-04 13:30:00,
2013-06-04 09:39:00,64.2,46.2,30.06,NNW,333,1.0,3.0,52,0.00,,,0.07,Wunderground v.1.15,2013-06-04 13:39:00,
2013-06-04 09:45:00,65.1,46.5,30.06,WSW,244,1.0,1.0,51,0.00,,,0.07,Wunderground v.1.15,2013-06-04 13:45:00,
2013-06-04 09:54:00,66.0,46.8,30.06,ENE,65,2.0,4.0,50,0.00,,,0.07,Wunderground v.1.15,2013-06-04 13:54:00,
2013-06-04 10:00:00,65.6,45.9,30.06,WSW,246,2.0,2.0,49,0.00,,,0.07,Wunderground v.1.15,2013-06-04 14:00:00,
2013-06-04 10:09:00,65.6,45.4,30.06,ENE,71,2.0,2.0,48,0.00,,,0.07,Wunderground v.1.15,2013-06-04 14:09:00,
2013-06-04 10:15:00,65.5,45.8,30.06,NW,310,2.0,2.0,49,0.00,,,0.07,Wunderground v.1.15,2013-06-04 14:15:00,
2013-06-04 10:24:00,66.6,47.4,30.06,ENE,59,1.0,2.0,50,0.00,,,0.07,Wunderground v.1.15,2013-06-04 14:24:00,
2013-06-04 10:30:00,67.3,46.4,30.05,West,268,1.0,1.0,47,0.00,,,0.07,Wunderground v.1.15,2013-06-04 14:30:00,
2013-06-04 10:39:00,67.5,47.7,30.06,East,86,1.0,1.0,49,0.00,,,0.07,Wunderground v.1.15,2013-06-04 14:39:00,
2013-06-04 10:45:00,68.3,48.9,30.06,NNE,12,2.0,3.0,50,0.00,,,0.07,Wunderground v.1.15,2013-06-04 14:45:00,
2013-06-04 10:54:00,68.1,45.9,30.06,East,90,2.0,2.0,45,0.00,,,0.07,Wunderground v.1.15,2013-06-04 14:54:00,
2013-06-04 11:00:00,68.3,47.3,30.06,ENE,63,1.0,2.0,47,0.00,,,0.07,Wunderground v.1.15,2013-06-04 15:00:00,
2013-06-04 11:09:00,69.0,47.4,30.06,ESE,108,1.0,2.0,46,0.00,,,0.07,Wunderground v.1.15,2013-06-04 15:09:00,
2013-06-04 11:15:00,69.7,46.8,30.06,West,263,1.0,2.0,44,0.00,,,0.07,Wunderground v.1.15,2013-06-04 15:15:00,
2013-06-04 11:24:00,69.6,48.5,30.06,NNE,28,2.0,2.0,47,0.00,,,0.07,Wunderground v.1.15,2013-06-04 15:24:00,
2013-06-04 11:30:00,69.7,47.4,30.06,NNE,22,2.0,4.0,45,0.00,,,0.07,Wunderground v.1.15,2013-06-04 15:30:00,
2013-06-04 11:39:00,70.1,46.6,30.06,West,269,2.0,2.0,43,0.00,,,0.07,Wunderground v.1.15,2013-06-04 15:39:00,
2013-06-04 11:45:00,70.3,46.7,30.06,WSW,257,2.0,2.0,43,0.00,,,0.07,Wunderground v.1.15,2013-06-04 15:45:00,
2013-06-04 11:54:00,69.8,45.7,30.06,NNW,335,2.0,4.0,42,0.00,,,0.07,Wunderground v.1.15,2013-06-04 15:54:00,
2013-06-04 12:00:00,70.1,47.2,30.06,ENE,64,2.0,5.0,44,0.00,,,0.07,Wunderground v.1.15,2013-06-04 16:00:00,
2013-06-04 12:09:00,71.1,48.1,30.06,NW,307,2.0,2.0,44,0.00,,,0.07,Wunderground v.1.15,2013-06-04 16:09:00,
2013-06-04 12:15:00,71.7,48.0,30.06,NE,36,1.0,2.0,43,0.00,,,0.07,Wunderground v.1.15,2013-06-04 16:15:00,
2013-06-04 12:24:00,72.0,47.6,30.06,NE,38,2.0,2.0,42,0.00,,,0.07,Wunderground v.1.15,2013-06-04 16:24:00,
2013-06-04 12:30:00,71.2,47.6,30.06,WNW,300,2.0,2.0,43,0.00,,,0.07,Wunderground v.1.15,2013-06-04 16:30:00,
2013-06-04 12:39:00,72.1,47.1,30.06,NE,47,1.0,1.0,41,0.00,,,0.07,Wunderground v.1.15,2013-06-04 16:39:00,
2013-06-04 12:44:00,72.8,49.6,30.06,West,266,1.0,1.0,44,0.00,,,0.07,Wunderground v.1.15,2013-06-04 16:44:00,
2013-06-04 12:54:00,74.2,47.6,30.05,West,281,1.0,2.0,39,0.00,,,0.07,Wunderground v.1.15,2013-06-04 16:54:00,
2013-06-04 12:59:00,73.9,47.4,30.05,NNW,331,2.0,2.0,39,0.00,,,0.07,Wunderground v.1.15,2013-06-04 16:59:00,
2013-06-04 13:05:00,74.2,46.2,30.04,NW,315,2.0,2.0,37,0.00,,,0.07,Wunderground v.1.15,2013-06-04 17:05:00,
2013-06-04 13:10:00,74.4,47.8,30.04,ENE,77,2.0,2.0,39,0.00,,,0.07,Wunderground v.1.15,2013-06-04 17:10:00,
2013-06-04 13:15:00,74.0,46.8,30.04,WNW,283,2.0,3.0,38,0.00,,,0.07,Wunderground v.1.15,2013-06-04 17:15:00,
2013-06-04 13:25:00,74.4,46.4,30.04,WNW,297,2.0,3.0,37,0.00,,,0.07,Wunderground v.1.15,2013-06-04 17:25:00,
2013-06-04 13:30:00,74.2,45.5,30.03,WNW,288,2.0,2.0,36,0.00,,,0.07,Wunderground v.1.15,2013-06-04 17:30:00,
2013-06-04 13:40:00,74.8,46.1,30.03,WSW,251,2.0,2.0,36,0.00,,,0.07,Wunderground v.1.15,2013-06-04 17:40:00,
2013-06-04 13:45:00,74.3,44.9,30.03,East,97,2.0,2.0,35,0.00,,,0.07,Wunderground v.1.15,2013-06-04 17:45:00,
2013-06-04 13:55:00,74.2,45.5,30.03,South,176,2.0,2.0,36,0.00,,,0.07,Wunderground v.1.15,2013-06-04 17:55:00,
2013-06-04 14:00:00,74.2,45.5,30.03,West,267,2.0,2.0,36,0.00,,,0.07,Wunderground v.1.15,2013-06-04 18:00:00,
2013-06-04 14:10:00,74.0,44.6,30.03,ENE,57,2.0,2.0,35,0.00,,,0.07,Wunderground v.1.15,2013-06-04 18:10:00,
2013-06-04 14:15:00,74.2,46.2,30.03,WSW,246,2.0,2.0,37,0.00,,,0.07,Wunderground v.1.15,2013-06-04 18:15:00,
2013-06-04 14:25:00,74.8,47.5,30.02,East,85,1.0,2.0,38,0.00,,,0.07,Wunderground v.1.15,2013-06-04 18:25:00,
2013-06-04 14:30:00,75.6,47.5,30.02,SSW,195,1.0,2.0,37,0.00,,,0.07,Wunderground v.1.15,2013-06-04 18:30:00,
2013-06-04 14:39:00,75.1,46.3,30.02,West,263,2.0,2.0,36,0.00,,,0.07,Wunderground v.1.15,2013-06-04 18:39:00,
2013-06-04 14:45:00,74.6,45.9,30.02,SW,232,2.0,4.0,36,0.00,,,0.07,Wunderground v.1.15,2013-06-04 18:45:00,
2013-06-04 14:55:00,74.3,43.3,30.02,WSW,244,2.0,2.0,33,0.00,,,0.07,Wunderground v.1.15,2013-06-04 18:55:00,
2013-06-04 15:00:00,74.0,43.8,30.01,ENE,59,2.0,3.0,34,0.00,,,0.07,Wunderground v.1.15,2013-06-04 19:00:00,
2013-06-04 15:10:00,74.2,46.2,30.01,ENE,59,2.0,2.0,37,0.00,,,0.07,Wunderground v.1.15,2013-06-04 19:10:00,
2013-06-04 15:20:00,74.8,46.8,30.02,North,355,1.0,1.0,37,0.00,,,0.07,Wunderground v.1.15,2013-06-04 19:20:00,
2013-06-04 15:25:00,74.9,46.1,30.01,North,5,1.0,1.0,36,0.00,,,0.07,Wunderground v.1.15,2013-06-04 19:25:00,
2013-06-04 15:34:00,74.8,44.5,30.01,ENE,65,1.0,4.0,34,0.00,,,0.07,Wunderground v.1.15,2013-06-04 19:34:00,
2013-06-04 15:45:00,74.6,43.6,30.01,North,360,1.0,1.0,33,0.00,,,0.07,Wunderground v.1.15,2013-06-04 19:45:00,
2013-06-04 15:54:00,74.5,43.5,30.01,NW,323,2.0,2.0,33,0.00,,,0.07,Wunderground v.1.15,2013-06-04 19:54:00,
2013-06-04 16:00:00,74.2,45.5,30.01,ENE,76,2.0,2.0,36,0.00,,,0.07,Wunderground v.1.15,2013-06-04 20:00:00,
2013-06-04 16:09:00,74.3,44.1,30.01,ENE,65,1.0,5.0,34,0.00,,,0.07,Wunderground v.1.15,2013-06-04 20:09:00,
2013-06-04 16:15:00,74.3,42.5,30.01,West,280,2.0,5.0,32,0.00,,,0.07,Wunderground v.1.15,2013-06-04 20:15:00,
2013-06-04 16:24:00,74.2,45.5,30.01,NW,319,1.0,2.0,36,0.00,,,0.07,Wunderground v.1.15,2013-06-04 20:24:00,
2013-06-04 16:30:00,74.2,44.0,30.01,WSW,252,1.0,1.0,34,0.00,,,0.07,Wunderground v.1.15,2013-06-04 20:30:00,
2013-06-04 16:39:00,74.2,43.2,30.00,ENE,59,1.0,1.0,33,0.00,,,0.07,Wunderground v.1.15,2013-06-04 20:39:00,
2013-06-04 16:45:00,74.2,43.2,30.00,WNW,301,1.0,1.0,33,0.00,,,0.07,Wunderground v.1.15,2013-06-04 20:45:00,
2013-06-04 16:54:00,74.3,42.5,30.01,North,350,1.0,1.0,32,0.00,,,0.07,Wunderground v.1.15,2013-06-04 20:54:00,
2013-06-04 17:00:00,74.3,42.5,30.01,West,270,2.0,2.0,32,0.00,,,0.07,Wunderground v.1.15,2013-06-04 21:00:00,
2013-06-04 17:09:00,74.1,42.3,30.01,NE,55,1.0,1.0,32,0.00,,,0.07,Wunderground v.1.15,2013-06-04 21:09:00,
2013-06-04 17:15:00,73.9,41.3,30.01,North,355,1.0,2.0,31,0.00,,,0.07,Wunderground v.1.15,2013-06-04 21:15:00,
2013-06-04 17:24:00,73.7,42.0,30.02,ENE,73,2.0,2.0,32,0.00,,,0.07,Wunderground v.1.15,2013-06-04 21:24:00,
2013-06-04 17:30:00,73.7,43.6,30.02,ENE,63,1.0,3.0,34,0.00,,,0.07,Wunderground v.1.15,2013-06-04 21:30:00,
2013-06-04 17:39:00,73.4,41.7,30.01,ESE,115,2.0,2.0,32,0.00,,,0.07,Wunderground v.1.15,2013-06-04 21:39:00,
2013-06-04 17:45:00,73.4,42.5,30.02,NNE,20,1.0,2.0,33,0.00,,,0.07,Wunderground v.1.15,2013-06-04 21:45:00,
2013-06-04 17:54:00,73.4,42.5,30.02,NNW,346,1.0,2.0,33,0.00,,,0.07,Wunderground v.1.15,2013-06-04 21:54:00,
2013-06-04 17:59:00,73.7,42.8,30.01,North,5,1.0,1.0,33,0.00,,,0.07,Wunderground v.1.15,2013-06-04 21:59:00,
2013-06-04 18:09:00,73.4,42.5,30.01,ENE,69,1.0,1.0,33,0.00,,,0.07,Wunderground v.1.15,2013-06-04 22:09:00,
2013-06-04 18:15:00,73.3,43.2,30.01,West,259,1.0,1.0,34,0.00,,,0.07,Wunderground v.1.15,2013-06-04 22:15:00,
2013-06-04 18:24:00,73.2,43.1,30.02,ENE,61,1.0,1.0,34,0.00,,,0.07,Wunderground v.1.15,2013-06-04 22:24:00,
2013-06-04 18:29:00,73.0,43.7,30.02,NE,38,1.0,1.0,35,0.00,,,0.07,Wunderground v.1.15,2013-06-04 22:29:00,
2013-06-04 18:39:00,72.8,43.5,30.02,ENE,62,1.0,1.0,35,0.00,,,0.07,Wunderground v.1.15,2013-06-04 22:39:00,
2013-06-04 18:44:00,72.6,44.1,30.02,NNE,26,1.0,1.0,36,0.00,,,0.07,Wunderground v.1.15,2013-06-04 22:44:00,
2013-06-04 18:54:00,72.3,45.3,30.03,NE,51,1.0,1.0,38,0.00,,,0.07,Wunderground v.1.15,2013-06-04 22:54:00,
2013-06-04 18:59:00,72.1,44.4,30.03,WSW,256,1.0,2.0,37,0.00,,,0.07,Wunderground v.1.15,2013-06-04 22:59:00,
2013-06-04 19:09:00,71.8,44.8,30.04,NE,37,0.0,1.0,38,0.00,,,0.07,Wunderground v.1.15,2013-06-04 23:09:00,
2013-06-04 19:14:00,71.6,43.9,30.04,ENE,68,0.0,1.0,37,0.00,,,0.07,Wunderground v.1.15,2013-06-04 23:14:00,
2013-06-04 19:24:00,71.3,43.7,30.04,ENE,75,0.0,2.0,37,0.00,,,0.07,Wunderground v.1.15,2013-06-04 23:24:00,
2013-06-04 19:29:00,71.2,44.3,30.04,ENE,75,0.0,0.0,38,0.00,,,0.07,Wunderground v.1.15,2013-06-04 23:29:00,
2013-06-04 19:39:00,70.8,44.6,30.05,ENE,75,0.0,0.0,39,0.00,,,0.07,Wunderground v.1.15,2013-06-04 23:39:00,
2013-06-04 19:44:00,70.5,45.0,30.05,ENE,75,0.0,0.0,40,0.00,,,0.07,Wunderground v.1.15,2013-06-04 23:44:00,
2013-06-04 19:54:00,70.0,45.2,30.05,NE,53,0.0,0.0,41,0.00,,,0.07,Wunderground v.1.15,2013-06-04 23:54:00,
2013-06-04 19:59:00,69.7,44.3,30.05,NNW,335,0.0,0.0,40,0.00,,,0.07,Wunderground v.1.15,2013-06-04 23:59:00,
2013-06-04 20:05:00,69.4,45.3,30.06,NNW,335,0.0,0.0,42,0.00,,,0.07,Wunderground v.1.15,2013-06-05 00:05:00,
2013-06-04 20:10:00,69.1,43.8,30.06,NNW,335,0.0,0.0,40,0.00,,,0.07,Wunderground v.1.15,2013-06-05 00:10:00,
2013-06-04 20:15:00,68.7,44.0,30.06,NNW,335,0.0,0.0,41,0.00,,,0.07,Wunderground v.1.15,2013-06-05 00:15:00,
2013-06-04 20:25:00,67.8,43.9,30.06,NNW,335,0.0,0.0,42,0.00,,,0.07,Wunderground v.1.15,2013-06-05 00:25:00,
2013-06-04 20:30:00,67.3,44.0,30.06,NNW,335,0.0,0.0,43,0.00,,,0.07,Wunderground v.1.15,2013-06-05 00:30:00,
2013-06-04 20:40:00,66.4,45.0,30.07,NNW,335,0.0,0.0,46,0.00,,,0.07,Wunderground v.1.15,2013-06-05 00:40:00,
2013-06-04 20:45:00,65.8,45.6,30.07,NNW,335,0.0,0.0,48,0.00,,,0.07,Wunderground v.1.15,2013-06-05 00:45:00,
2013-06-04 20:55:00,64.6,47.6,30.07,NNE,29,0.0,1.0,54,0.00,,,0.07,Wunderground v.1.15,2013-06-05 00:55:00,
2013-06-04 21:05:00,63.0,46.6,30.08,NNE,29,0.0,0.0,55,0.00,,,0.07,Wunderground v.1.15,2013-06-05 01:05:00,
2013-06-04 21:15:00,61.9,47.9,30.09,NNE,29,0.0,0.0,60,0.00,,,0.07,Wunderground v.1.15,2013-06-05 01:15:00,
2013-06-04 21:24:00,61.0,48.7,30.09,NNE,29,0.0,0.0,64,0.00,,,0.07,Wunderground v.1.15,2013-06-05 01:24:00,
2013-06-04 21:30:00,60.5,48.7,30.09,NNE,29,0.0,0.0,65,0.00,,,0.07,Wunderground v.1.15,2013-06-05 01:30:00,
2013-06-04 21:39:00,59.9,49.3,30.10,NNE,29,0.0,0.0,68,0.00,,,0.07,Wunderground v.1.15,2013-06-05 01:39:00,
2013-06-04 21:45:00,59.6,49.4,30.10,NNE,29,0.0,0.0,69,0.00,,,0.07,Wunderground v.1.15,2013-06-05 01:45:00,
2013-06-04 21:54:00,58.9,48.7,30.11,NNE,29,0.0,0.0,69,0.00,,,0.07,Wunderground v.1.15,2013-06-05 01:54:00,
2013-06-04 22:00:00,58.5,48.4,30.11,NNE,29,0.0,0.0,69,0.00,,,0.07,Wunderground v.1.15,2013-06-05 02:00:00,
2013-06-04 22:09:00,57.8,48.5,30.11,NNE,28,0.0,0.0,71,0.00,,,0.07,Wunderground v.1.15,2013-06-05 02:09:00,
2013-06-04 22:15:00,57.6,48.6,30.12,NNE,29,0.0,0.0,72,0.00,,,0.07,Wunderground v.1.15,2013-06-05 02:15:00,
2013-06-04 22:24:00,57.1,48.9,30.12,NNE,29,0.0,0.0,74,0.00,,,0.07,Wunderground v.1.15,2013-06-05 02:24:00,
2013-06-04 22:30:00,56.8,49.0,30.12,NNE,29,0.0,0.0,75,0.00,,,0.07,Wunderground v.1.15,2013-06-05 02:30:00,
2013-06-04 22:39:00,56.3,48.8,30.13,NNE,29,0.0,0.0,76,0.00,,,0.07,Wunderground v.1.15,2013-06-05 02:39:00,
2013-06-04 22:45:00,56.0,48.9,30.13,NE,46,0.0,0.0,77,0.00,,,0.07,Wunderground v.1.15,2013-06-05 02:45:00,
2013-06-04 22:54:00,55.6,48.8,30.13,NE,46,0.0,2.0,78,0.00,,,0.07,Wunderground v.1.15,2013-06-05 02:54:00,
2013-06-04 23:00:00,55.4,48.7,30.13,NE,46,0.0,0.0,78,0.00,,,0.07,Wunderground v.1.15,2013-06-05 03:00:00,
2013-06-04 23:09:00,54.9,47.8,30.13,NE,46,0.0,0.0,77,0.00,,,0.07,Wunderground v.1.15,2013-06-05 03:09:00,
2013-06-04 23:15:00,54.8,48.1,30.13,NE,46,0.0,0.0,78,0.00,,,0.07,Wunderground v.1.15,2013-06-05 03:15:00,
2013-06-04 23:24:00,54.3,47.9,30.13,NE,46,0.0,0.0,79,0.00,,,0.07,Wunderground v.1.15,2013-06-05 03:24:00,
2013-06-04 23:30:00,54.1,48.4,30.13,NE,46,0.0,0.0,81,0.00,,,0.07,Wunderground v.1.15,2013-06-05 03:30:00,
2013-06-04 23:39:00,53.6,47.6,30.13,NE,46,0.0,0.0,80,0.00,,,0.07,Wunderground v.1.15,2013-06-05 03:39:00,
2013-06-04 23:45:00,53.3,47.6,30.13,NE,46,0.0,0.0,81,0.00,,,0.07,Wunderground v.1.15,2013-06-05 03:45:00,
2013-06-04 23:54:00,52.9,47.2,30.14,NE,46,0.0,0.0,81,0.00,,,0.07,Wunderground v.1.15,2013-06-05 03:54:00,